Weather Roundup
Issued by NWS Corpus Christi, TX

Home | Current Version | Previous Version | Text Only | Print | Product List | Glossary On
Versions: 1 2 3 4 5 6 7 8 9 10 11 12 13 14 15 16 17 18 19 20 21 22 23 24 25 26 27 28 29 30 31 32 33 34 35 36 37 38 39 40 41 42 43 44 45 46 47 48 49 50
515
ASUS44 KCRP 040210
HRRCRP

SOUTH TEXAS REGIONAL WEATHER ROUNDUP
NATIONAL WEATHER SERVICE CORPUS CHRISTI TX
900 PM CDT TUE MAY 03 2016


TXZ229>244-040300-
...CORPUS CHRISTI AREA OBSERVATIONS...

CITY           SKY/WX    TMP DP  RH WIND       PRES   REMARKS
CORPUS CHRISTI PTCLDY    73  56  54 E7        30.00R
NAS CORPUS CHR MOCLDY    71  60  68 E6        29.99R
ROCKPORT       CLEAR     71  53  52 NE6       29.99R
KINGSVILLE NAS PTCLDY    69  60  73 SE5       30.00R
ALICE          CLEAR     68  53  58 SE7       30.00R
FALFURRIAS     PTCLDY    72  57  58 E5        30.00R
$$

...VICTORIA AREA OBSERVATIONS...

CITY           SKY/WX    TMP DP  RH WIND       PRES   REMARKS
VICTORIA       CLEAR     66  58  75 N3        30.01R
BEEVILLE       FAIR      68  53  58 NE5       30.01R
PLEASANTON     CLEAR     69  46  44 NE3       30.03R
SAN ANTONIO    CLEAR     67  50  54 E5        30.04R
$$

...LAREDO AREA OBSERVATIONS...

CITY           SKY/WX    TMP DP  RH WIND       PRES   REMARKS
LAREDO         MOCLDY    74  53  48 S13       30.00R
COTULLA        PTCLDY    76  47  35 E7        30.01R
DEL RIO        CLEAR     73  56  54 SE6       30.00R
MCALLEN        CLOUDY    72  57  59 SW3       30.01R
HEBBRONVILLE   CLOUDY    74  50  42 CALM      30.01R
$$

...OTHER TEXAS OBSERVATIONS...

CITY           SKY/WX    TMP DP  RH WIND       PRES   REMARKS
BROWNSVILLE    CLOUDY    70  61  73 NE7       30.01R
HOUSTON        CLEAR     67  51  56 N3        30.01R
COL. STATION   CLEAR     63  49  60 N7        30.04R
AUSTIN         CLEAR     67  50  54 NE9       30.04R
WACO           CLEAR     62  51  67 NE3       30.06R
FORT WORTH     CLOUDY    68  44  42 CALM      30.05R
WICHITA FALLS  CLOUDY    56  53  90 S5        30.04S
LUBBOCK        PTCLDY    58  47  66 SW3       30.11R
EL PASO        PTCLDY    77  25  14 NE9       30.05R
$$

...MARINE OBSERVATIONS...

STATION/POSITION TIME  SKY/WX   TEMP    WIND        PRES    VSBY  WAVE   SWELL
                                AIR SEA DIR/SP/G                  HT/PER HT/PER
                 (UTC)          (F)     (DEG/KT/KT) (MB)    (MI)  (FT/S) (FT/S)
PORT ARANSAS     0200            74 77   10/  7/  8 1016.6R
BUOY 90 E PORT A 0150            71 77   10/  4/  6 1015.3R         3/ 6   3/ 6
BUOY 45 SE BAFFI 0150            72 75   40/ 10/ 12 1015.2R         3/ 6   3/ 6
BUOY 200 E PT IS 0150                                 N/A           5/ 7   3/ 7
BUOY 15 E GALVES 0150            74 75  340/ 14/ 16 1014.6R         2/ 8   2/ 8
$$




USA.gov is the U.S. government's official web portal to all federal, state and local government web resources and services.